Content
SEND FEEDBACK

Daily
Averages
Monthly
Summary
Cuba

GUANABACOA, CUBA


Home > Caribbean > Cuba
Elevation: 164 feet     Latitude: 23 10N     Longitude: 082 21W

WEATHER
 
SELECT A DAY
Number of Records: 141,527;   Date Range: 6/30/96 - 9/30/14
 
SHARE

PRINT THIS DATA

[ ← Previous Day ]
WEATHER ALMANAC - MAY 15, 2014
[ Next Day → ]
[ °C ]   °F
Weather ElementAverageHighLow
Temperature77.7 °F87.8 °F (12:55 pm)71.6 °F (6:55 am)
Dewpoint70.7 °F73.4 °F (2:55 pm)68 °F (1:55 pm)
Humidity78.9 %94 % (6:55 am)52 % (1:55 pm)
Barometer29.99 in30.04 in (10:55 pm)29.98 in (2:55 am)
Wind Speed5.2 mph11.5 mph (4:16 pm)
Weather ElementAverage
Visibility4.9 mi
Wind DirectionESE (123.4 °)

Weather ElementTotal
Precipitation---
Cooling Degree Days14.7 (Base 65)
Growing Degree Days29.7 (Base 50)
Averaged from 31 records on May 15, 2014
WEATHER CONDITIONS BREAKOUT
WIND DIRECTION BREAKOUT
WEATHER BY HOUR - MAY 15, 2014
[ °C ]   °F
Local TimeTemperatureDewpointHumidityBarometerVisibilityWind DirectionWind SpeedGust SpeedPrecipitationEventsConditions
1:55 AM73.4 °F69.8 °F88 %30.01 in5.6 miVariable2.3 mphScattered Clouds
2:55 AM73.4 °F69.8 °F88 %29.98 in5.6 miVariable1.2 mphScattered Clouds
3:55 AM73.4 °F69.8 °F88 %29.98 in5.6 miWSW (240°)3.5 mphScattered Clouds
4:55 AM73.4 °F69.8 °F88 %29.98 in5.6 miVariable2.3 mphScattered Clouds
5:00 AM73.0 °F70.0 °F87 %29.99 in6.0 mi°2.2 mphHaze
5:55 AM73.4 °F69.8 °F88 %29.98 in5.6 miVariable1.2 mphScattered Clouds
6:55 AM71.6 °F69.8 °F94 %29.98 in5.6 miSE (130°)2.3 mphScattered Clouds
7:55 AM73.4 °F71.6 °F94 %29.98 in5.6 miSouth (180°)2.3 mphScattered Clouds
8:55 AM78.8 °F71.6 °F78 %30.01 in5.6 miVariable2.3 mphPartly Cloudy
9:55 AM80.6 °F71.6 °F74 %30.01 in5.6 miSouth (180°)6.9 mphScattered Clouds
10:55 AM84.2 °F71.6 °F66 %30.01 in5.6 miSouth (180°)5.8 mphMostly Cloudy
11:00 AM84.0 °F72.0 °F58 %30.01 in6.0 mi°6.7 mphHaze
11:55 AM86.0 °F69.8 °F58 %30.01 in5.6 miSouth (180°)5.8 mphMostly Cloudy
12:55 PM87.8 °F69.8 °F55 %30.01 in5.6 miSSW (200°)8.1 mphMostly Cloudy
1:55 PM87.8 °F68.0 °F52 %29.98 in5.6 miSouth (190°)8.1 mphMostly Cloudy
2:55 PM82.4 °F73.4 °F74 %29.98 in3.1 miNE (50°)8.1 mphRainRain Showers
3:22 PM77.0 °F71.6 °F83 %29.98 in1.2 miNNW (330°)10.4 mphRainHeavy Rain Showers
3:28 PM75.2 °F71.6 °F89 %29.98 in1.2 miNNW (340°)9.2 mphRainHeavy Rain Showers
3:55 PM75.2 °F69.8 °F83 %29.98 in3.1 miNNE (30°)9.2 mphRainHeavy Rain Showers
4:16 PM78.8 °F69.8 °F74 %29.98 in3.1 miNW (320°)11.5 mphRainRain Showers
4:32 PM80.6 °F71.6 °F74 %29.98 in4.3 miNNW (330°)5.8 mphMostly Cloudy
4:55 PM80.6 °F71.6 °F74 %29.98 in5.0 miNE (40°)3.5 mphMostly Cloudy
5:00 PM80.0 °F72.0 °F70 %29.98 in5.0 miNE (50°)4.5 mphHaze
5:55 PM80.6 °F71.6 °F74 %29.98 in5.0 miEast (80°)5.8 mphMostly Cloudy
6:55 PM78.8 °F73.4 °F83 %29.98 in5.0 miENE (60°)9.2 mphMostly Cloudy
7:55 PM77.0 °F71.6 °F83 %29.98 in5.0 miEast (80°)4.6 mphMostly Cloudy
8:55 PM75.2 °F69.8 °F83 %30.01 in5.0 miENE (70°)4.6 mphMostly Cloudy
9:55 PM73.4 °F69.8 °F88 %30.01 in5.0 miENE (70°)4.6 mphMostly Cloudy
10:55 PM73.4 °F69.8 °F88 %30.04 in5.0 miEast (80°)3.5 mphScattered Clouds
11:00 PM74.0 °F70.0 °F83 %30.04 in5.0 miEast (90°)2.2 mphHaze
11:55 PM73.4 °F69.8 °F88 %30.04 in5.0 miEast (80°)3.5 mphScattered Clouds
Hourly data recorded from MUHA, located miles away from Guanabacoa, Cuba







STORIES FROM OUR PARTNERS